Terminal Aerodrome Forecast
Issued by NWS State College, PA

Home | Current Version | Previous Version | Text Only | Print | Product List | Glossary On
Versions: 1 2 3 4 5 6 7 8 9 10 11 12 13 14 15 16 17 18 19 20 21 22 23 24 25 26 27 28 29 30 31 32 33 34 35 36 37 38 39 40 41 42 43 44 45 46 47 48 49 50
840
FTUS41 KCTP 011909 AAB
TAFMDT
TAF AMD
KMDT 011909Z 0119/0218 22008G18KT P6SM BKN080
     FM020400 28016G28KT P6SM VCSH BKN040
     FM020800 29016G30KT P6SM BKN040=

USA.gov is the U.S. government's official web portal to all federal, state and local government web resources and services.